Lid_Strength_Index
2 5 6 7 11 11 12 11 8 9 7 6 5 7 8 7 9 11 2 1 1 1 -0 -0 -1 -1 -1 -1 -1 -1 -1 -1 -1 -1 -1 -1 -1 -1 -1 -1 -1 -1 -1 -1 -1 -1 -1 -1 -1
5 5 7 9 13 15 13 9 10 8 6 5 5 6 7 9 4 4 3 1 0 0 -0 -0 -0 -1 -1 -1 -1 -1 -1 -1 -1 -1 -1 -1 -1 -1 -1 -1 -1 -1 -1 -1 -1 -1 -1 -1 -1
3 5 10 12 13 13 12 9 8 6 5 6 7 5 6 7 4 4 1 1 0 0 -0 -0 -0 -1 -1 -1 -1 -1 -1 -1 -1 -1 -1 -1 -1 -1 -1 -1 -1 -2 -1 -1 -1 -1 -1 -1 -1
6 8 10 13 14 10 9 8 7 6 5 6 6 8 5 3 3 2 1 0 1 0 -0 -0 -0 -0 -1 -1 -1 -1 -1 -1 -1 -1 -1 -1 -1 -1 -1 -1 -1 -2 -2 -1 -1 -1 -1 -1 -1
6 8 14 15 12 10 7 6 7 7 6 5 5 8 7 3 1 1 1 1 1 1 -0 -0 -0 -1 -1 -1 -1 -1 -1 -1 -1 -1 -1 -1 -1 -1 -1 -1 -2 -2 -2 -1 -1 -1 -1 -2 -1
9 9 14 15 13 9 7 6 6 7 6 5 6 7 7 2 2 1 1 1 0 1 0 -0 -1 -0 -1 -1 -1 -1 -1 -1 -1 -1 -1 -1 -1 -1 -1 -1 -1 -2 -2 -2 -1 -1 -1 -1 -1
9 11 14 12 12 10 8 6 7 6 6 6 5 8 6 4 2 1 1 1 1 0 0 -0 -0 -0 -1 -1 -1 -1 -1 -1 -1 -1 -1 -1 -1 -1 -1 -1 -1 -1 -1 -1 -1 -1 -1 -1 -1
8 9 12 11 11 11 8 6 5 6 6 3 3 8 7 3 2 1 1 1 1 1 0 0 0 -0 -0 -0 -1 -1 -1 -1 -1 -1 -1 -1 -1 -1 -1 -1 -1 -1 -2 -2 -1 -1 -1 -1 -1
6 10 12 11 10 9 7 7 5 4 6 6 4 5 4 2 2 2 2 2 2 1 1 0 0 0 0 -0 -0 -1 -1 -1 -1 -1 -1 -1 0 -0 -1 -1 -1 -1 -2 -2 -2 -2 -1 -1 -1
9 11 11 8 8 8 7 7 7 6 7 7 5 4 3 3 3 3 3 3 3 2 1 1 1 0 0 -0 -0 0 -0 -0 -0 -0 -0 0 1 0 -1 -1 -2 -2 -2 -2 -2 -2 -2 -2 0
9 11 9 7 7 6 6 6 5 7 10 8 8 6 4 4 3 4 3 3 3 2 1 1 1 0 1 0 0 0 0 0 0 0 0 1 0 0 0 0 -0 0 -1 -0 -0 -0 -0 0 0
10 8 8 7 6 7 7 6 6 7 8 6 6 4 4 4 4 4 3 3 2 2 1 1 1 1 1 0 0 0 0 0 0 0 0 0 0 1 0 0 0 0 0 0 1 0 0 1 1
9 8 7 6 6 7 6 7 7 7 6 6 5 5 4 4 4 3 3 2 3 2 2 1 1 1 1 0 0 0 0 0 0 0 0 0 0 1 1 0 0 0 0 1 2 2 2 1 2
8 8 7 6 7 6 8 7 7 6 6 7 6 6 5 4 4 4 3 3 3 2 2 1 1 0 0 1 1 0 0 0 0 0 -0 -0 0 0 0 0 0 0 1 1 1 1 1 1 1
8 10 8 7 7 8 7 9 8 6 6 8 7 6 5 4 4 4 3 3 2 2 3 2 1 1 1 1 0 1 0 0 1 1 1 0 -0 0 0 0 0 0 1 1 1 0 0 1 0
10 10 12 9 7 7 7 12 7 6 6 7 6 6 5 5 6 4 3 3 3 4 4 4 2 1 1 1 1 0 0 0 0 0 0 0 -0 0 0 1 1 1 0 2 3 2 2 2 1
11 13 12 10 7 8 9 12 7 6 6 6 6 6 6 5 5 3 3 2 2 2 3 3 3 3 1 1 1 1 0 0 1 0 0 0 -0 -0 0 0 1 0 2 3 3 3 1 1 1
13 13 11 11 9 9 10 10 8 6 6 6 7 6 6 6 6 4 3 2 2 2 2 2 1 2 4 1 1 1 1 1 0 0 0 0 -0 -0 0 0 1 1 2 4 3 4 4 2 2
10 10 11 9 8 10 11 10 8 6 6 6 7 6 6 6 6 5 3 2 2 2 2 2 2 2 4 1 2 2 2 1 1 0 0 0 0 -0 0 1 1 1 1 2 2 2 2 2 2
9 10 11 9 8 9 10 11 8 7 7 6 7 6 6 6 5 5 4 3 3 2 2 3 2 1 2 1 1 2 2 1 1 1 0 0 0 1 0 1 1 1 1 2 1 2 2 3 3
10 10 10 11 9 8 10 13 11 8 7 6 6 5 5 6 6 6 6 4 4 4 3 3 3 1 1 1 1 2 2 3 2 2 1 1 0 0 0 0 1 1 2 1 1 2 3 3 3
11 8 8 10 11 16 11 18 13 10 9 7 6 6 6 6 6 6 6 7 5 2 2 2 2 2 2 2 2 4 4 3 3 2 1 1 1 1 0 0 1 1 2 3 2 2 1 3 4
10 8 9 9 11 13 13 15 11 9 11 9 7 6 6 6 6 6 6 6 6 3 3 2 2 2 1 2 2 2 3 2 2 2 2 2 1 1 0 0 1 2 2 3 3 3 3 2 3
7 9 9 9 11 15 12 13 13 10 10 9 8 6 5 5 6 6 6 4 4 4 2 2 2 2 2 2 2 2 3 2 3 2 2 2 2 2 2 2 2 2 3 2 3 1 2 1 2
9 12 15 17 18 19 11 12 11 9 8 8 7 6 6 6 5 7 6 4 3 3 3 2 2 3 2 2 2 2 2 2 2 3 3 4 4 4 3 3 3 2 3 1 1 2 1 1 2
11 12 16 19 19 16 11 14 12 8 7 7 6 6 7 7 7 5 4 4 3 3 3 3 3 3 2 2 2 2 2 2 2 3 3 4 4 3 3 2 1 1 1 1 1 1 1 2 3
10 13 11 13 14 16 14 11 8 8 8 7 7 6 6 6 5 5 4 4 4 3 3 3 3 2 3 3 3 2 2 3 3 3 3 2 1 1 2 1 1 1 1 1 1 1 2 2 2
9 9 13 15 21 21 15 13 13 10 9 8 7 7 6 6 5 5 4 4 3 4 3 3 4 4 3 3 3 3 4 3 4 4 5 3 2 2 1 1 1 1 1 1 1 2 2 2 1
11 11 11 13 13 19 21 18 10 9 8 8 7 7 7 6 5 5 4 3 3 4 5 3 4 5 4 4 4 4 4 4 3 4 4 4 3 3 1 1 1 1 1 1 1 2 2 2 2
9 11 10 15 16 16 17 18 8 8 7 7 7 6 6 6 6 6 5 4 4 4 4 4 4 4 4 2 2 4 4 4 4 5 4 3 3 2 3 2 2 1 1 2 1 2 1 2 2